Weather History for KOCQ - July, 2013

Change the Weather History Date:

Saturday, July 13, 2013

  Actual Average Record
Temperature  
Mean Temperature 70 °F -  
Max Temperature 84 °F 80 °F 84 °F (2013)
Min Temperature 55 °F 57 °F 53 °F (2014)
Cooling Degree Days 4    
Growing Degree Days 20 (Base 50)    
Moisture  
Dew Point 58 °F    
Average Humidity 65    
Maximum Humidity 93    
Minimum Humidity 42    
Precipitation  
Precipitation 0.00 in - - ()
Sea Level Pressure  
Sea Level Pressure 30.13 in    
Wind  
Wind Speed 3 mph (South)    
Max Wind Speed 12 mph    
Max Gust Speed 17 mph    
Visibility 10 miles    
Events      
Averages and records for this station are not official NWS values.
T = Trace of Precipitation, MM = Missing Value Source: NWS Daily Summary

Daily Weather History Graph

Daily Weather History Graph

Search for Another Location

Airport or City:

Trip Planner

Search our weather history database for the weather conditions in past years. The results will help you decide how hot, cold, wet, or windy it might be!

Date:

Astronomy

Jul. 13, 2013 Rise Set
Actual Time 5:18 AM CDT 8:36 PM CDT
Civil Twilight 4:42 AM CDT 9:12 PM CDT
Nautical Twilight 3:55 AM CDT 9:58 PM CDT
Astronomical Twilight 2:56 AM CDT 10:56 PM CDT
Moon 10:50 AM CDT (7/13) 10:59 PM CDT (7/13)
Length of Visible Light 16h 29m
Length of Day
15h 18m
Waxing Crescent, 26% of the Moon is Illuminated
Jul 13
Waxing Crescent
Jul 15
First Quarter
Jul 22
Full
Jul 29
Last Quarter
Aug 6
New

Hourly Weather History & Observations

Time (CDT) Temp. Heat Index Dew Point Humidity Pressure Visibility Wind Dir Wind Speed Gust Speed Precip Events Conditions
12:15 AM 66.7 °F - 55.8 °F 68% 30.08 in 10.0 mi Calm Calm - N/A   Clear
12:35 AM 60.3 °F - 56.3 °F 87% 30.09 in 10.0 mi Calm Calm - N/A   Clear
12:55 AM 61.5 °F - 56.3 °F 83% 30.09 in 10.0 mi Calm Calm - N/A   Clear
1:15 AM 62.2 °F - 55.0 °F 77% 30.09 in 10.0 mi Calm Calm - N/A   Clear
1:35 AM 58.6 °F - 55.4 °F 89% 30.10 in 10.0 mi Calm Calm - N/A   Clear
1:55 AM 57.4 °F - 54.9 °F 91% 30.11 in 10.0 mi Calm Calm - N/A   Clear
2:35 AM 59.7 °F - 53.6 °F 80% 30.11 in 10.0 mi Calm Calm - N/A   Clear
2:55 AM 58.3 °F - 54.0 °F 86% 30.11 in 10.0 mi Calm Calm - N/A   Clear
3:15 AM 59.0 °F - 53.1 °F 81% 30.10 in 10.0 mi Calm Calm - N/A   Clear
3:35 AM 57.7 °F - 52.7 °F 83% 30.09 in 10.0 mi Calm Calm - N/A   Clear
3:55 AM 55.4 °F - 52.9 °F 91% 30.10 in 10.0 mi Calm Calm - N/A   Clear
4:15 AM 55.9 °F - 52.9 °F 89% 30.11 in 10.0 mi Calm Calm - N/A   Clear
4:35 AM 55.4 °F - 53.4 °F 93% 30.11 in 10.0 mi Calm Calm - N/A   Clear
4:55 AM 55.8 °F - 52.9 °F 90% 30.11 in 10.0 mi Calm Calm - N/A   Clear
5:35 AM 57.9 °F - 53.1 °F 84% 30.10 in 10.0 mi Calm Calm - N/A   Clear
5:55 AM 61.0 °F - 53.1 °F 75% 30.11 in 10.0 mi Calm Calm - N/A   Clear
6:15 AM 60.3 °F - 54.7 °F 82% 30.13 in 10.0 mi Calm Calm - N/A   Clear
6:35 AM 63.3 °F - 54.0 °F 71% 30.14 in 10.0 mi Calm Calm - N/A   Clear
6:55 AM 65.7 °F - 55.0 °F 69% 30.14 in 10.0 mi Calm Calm - N/A   Clear
7:15 AM 67.8 °F - 55.6 °F 65% 30.14 in 10.0 mi South 4.6 mph - N/A   Clear
7:35 AM 69.3 °F - 57.2 °F 65% 30.14 in 10.0 mi South 5.8 mph - N/A   Clear
7:55 AM 70.9 °F - 58.3 °F 64% 30.14 in 10.0 mi SSW 5.8 mph - N/A   Clear
8:15 AM 72.5 °F - 58.8 °F 62% 30.14 in 10.0 mi SSW 8.1 mph - N/A   Clear
8:35 AM 73.4 °F - 58.8 °F 60% 30.15 in 10.0 mi SW 6.9 mph - N/A   Clear
8:55 AM 73.4 °F - 59.5 °F 62% 30.15 in 10.0 mi WSW 6.9 mph - N/A   Clear
9:15 AM 75.0 °F - 60.1 °F 60% 30.16 in 10.0 mi WSW 9.2 mph - N/A   Clear
9:35 AM 76.3 °F - 60.1 °F 57% 30.16 in 10.0 mi WSW 10.4 mph 16.1 mph N/A   Clear
9:55 AM 77.0 °F - 60.6 °F 57% 30.15 in 10.0 mi SSW 8.1 mph - N/A   Clear
10:15 AM 77.7 °F - 60.4 °F 55% 30.16 in 10.0 mi SW 10.4 mph - N/A   Clear
10:35 AM 77.7 °F - 60.4 °F 55% 30.16 in 10.0 mi SW 6.9 mph - N/A   Clear
10:55 AM 78.3 °F - 59.7 °F 53% 30.16 in 10.0 mi SW 8.1 mph - N/A   Clear
11:15 AM 79.9 °F - 60.4 °F 51% 30.16 in 10.0 mi SW 9.2 mph - N/A   Clear
11:35 AM 80.6 °F 81.4 °F 60.4 °F 50% 30.16 in 10.0 mi SW 9.2 mph - N/A   Clear
11:55 AM 81.1 °F 81.9 °F 60.6 °F 50% 30.15 in 10.0 mi South 5.8 mph - N/A   Clear
12:15 PM 81.0 °F 81.7 °F 60.6 °F 50% 30.15 in 10.0 mi SW 8.1 mph - N/A   Clear
12:35 PM 81.5 °F 82.0 °F 59.9 °F 48% 30.15 in 10.0 mi WSW 9.2 mph - N/A   Clear
12:55 PM 82.2 °F 82.4 °F 59.4 °F 46% 30.14 in 10.0 mi SW 6.9 mph - N/A   Clear
1:15 PM 82.8 °F 83.3 °F 61.0 °F 48% 30.14 in 10.0 mi South 5.8 mph - N/A   Clear
1:35 PM 82.0 °F 82.8 °F 61.5 °F 50% 30.13 in 10.0 mi South 8.1 mph - N/A   Clear
1:55 PM 82.0 °F 82.7 °F 61.2 °F 49% 30.13 in 10.0 mi SSE 10.4 mph 17.3 mph N/A   Clear
2:15 PM 82.0 °F 82.4 °F 60.3 °F 47% 30.14 in 10.0 mi SSE 10.4 mph - N/A   Clear
2:35 PM 82.2 °F 82.6 °F 60.3 °F 47% 30.14 in 10.0 mi SSE 11.5 mph - N/A   Clear
2:55 PM 82.4 °F 82.5 °F 59.0 °F 45% 30.14 in 10.0 mi SSE 8.1 mph - N/A   Clear
3:15 PM 83.5 °F 83.1 °F 58.5 °F 42% 30.14 in 10.0 mi SSE 8.1 mph - N/A   Clear
3:35 PM 82.9 °F 82.8 °F 58.8 °F 44% 30.14 in 10.0 mi South 10.4 mph - N/A   Clear
3:55 PM 83.5 °F 83.2 °F 58.6 °F 43% 30.13 in 10.0 mi South 8.1 mph 16.1 mph N/A   Clear
4:15 PM 83.3 °F 83.1 °F 58.8 °F 43% 30.13 in 10.0 mi South 6.9 mph - N/A   Clear
4:35 PM 83.7 °F 83.6 °F 59.9 °F 44% 30.13 in 10.0 mi South 6.9 mph - N/A   Clear
4:55 PM 84.0 °F 84.0 °F 59.7 °F 44% 30.13 in 10.0 mi SSE 6.9 mph - N/A   Clear
5:15 PM 82.8 °F 83.6 °F 62.6 °F 50% 30.13 in 10.0 mi South 11.5 mph 16.1 mph N/A   Clear
5:35 PM 79.7 °F - 63.0 °F 56% 30.14 in 10.0 mi SSE 10.4 mph - N/A   Clear
5:55 PM 78.6 °F - 62.8 °F 58% 30.13 in 10.0 mi South 6.9 mph - N/A   Clear
6:15 PM 78.1 °F - 63.0 °F 60% 30.14 in 10.0 mi SSE 6.9 mph - N/A   Clear
6:35 PM 78.6 °F - 62.6 °F 58% 30.14 in 10.0 mi SSE 8.1 mph - N/A   Clear
6:55 PM 78.1 °F - 63.3 °F 60% 30.13 in 10.0 mi SSE 9.2 mph - N/A   Clear
7:15 PM 77.4 °F - 62.8 °F 61% 30.14 in 10.0 mi SSE 9.2 mph - N/A   Clear
7:35 PM 76.3 °F - 60.3 °F 57% 30.14 in 10.0 mi SSE 5.8 mph - N/A   Clear
7:55 PM 75.4 °F - 61.0 °F 61% 30.14 in 10.0 mi SSE 6.9 mph - N/A   Clear
8:15 PM 74.5 °F - 61.2 °F 63% 30.14 in 10.0 mi SSE 4.6 mph - N/A   Clear
8:35 PM 73.2 °F - 61.9 °F 68% 30.14 in 10.0 mi SSE 4.6 mph - N/A   Clear
8:55 PM 73.0 °F - 61.5 °F 67% 30.14 in 10.0 mi SSE 5.8 mph - N/A   Clear
9:15 PM 72.1 °F - 61.2 °F 68% 30.14 in 10.0 mi SSE 4.6 mph - N/A   Clear
9:35 PM 70.9 °F - 60.6 °F 70% 30.15 in 10.0 mi SSE 4.6 mph - N/A   Clear
9:55 PM 71.4 °F - 58.5 °F 64% 30.15 in 10.0 mi SSE 3.5 mph - N/A   Clear
10:15 PM 69.1 °F - 58.6 °F 69% 30.15 in 10.0 mi Calm Calm - N/A   Clear
10:35 PM 65.1 °F - 58.6 °F 79% 30.15 in 10.0 mi SSE 3.5 mph - N/A   Clear
10:55 PM 65.8 °F - 58.6 °F 78% 30.15 in 10.0 mi Calm Calm - N/A   Clear
11:15 PM 61.7 °F - 57.9 °F 87% 30.15 in 10.0 mi Calm Calm - N/A   Clear
11:35 PM 63.3 °F - 59.0 °F 86% 30.16 in 10.0 mi Calm Calm - N/A   Clear
11:55 PM 64.4 °F - 58.1 °F 80% 30.16 in 10.0 mi Calm Calm - N/A   Clear